Tracking 22130 objects as of 21-Jan-2021
HD Live streaming from Space Station
objects crossing your sky now

STARLINK-1777

Track STARLINK-1777 now!
10-day predictions
STARLINK-1777 is classified as:


NORAD ID: 47122
Int'l Code: 2020-088A
Perigee: 463.4 km
Apogee: 465.4 km
Inclination: 53.1 °
Period: 93.7 minutes
Semi major axis: 6835 km
RCS: Unknown
Launch date: November 25, 2020
Source: United States (US)
Launch site: AIR FORCE EASTERN TEST RANGE (AFETR)
aabbcc
Your satellite tracking list
Your tracking list is empty




NASA's NSSDC Master Catalog

Two Line Element Set (TLE):
1 47122U 20088A   21021.58335648 -.00851017  00000-0 -25716-1 0  9998
2 47122  53.0552  71.8592 0001464  64.9021 353.7141 15.36247762  1779
Source of the keplerian elements: AFSPC